Regional Weather Roundup
Issued by NWS Glasgow, MT

Home | Current Version | Previous Version | Text Only | Print | Product List | Glossary On
Versions: 1 2 3 4 5 6 7 8 9 10 11 12 13 14 15 16 17 18 19 20 21 22 23 24 25 26 27 28 29 30 31 32 33 34 35 36 37 38 39 40 41 42 43 44 45 46 47 48 49 50
000
ASUS45 KGGW 222315
RWRGGW
HOURLY WEATHER ROUNDUP FOR NORTHEAST MONTANA
NATIONAL WEATHER SERVICE GLASGOW MONTANA
500 PM MDT FRI AUG 22 2014

NOTE: "FAIR" INDICATES FEW OR NO CLOUDS BELOW 12,000 FEET WITH NO
SIGNIFICANT WEATHER AND/OR OBSTRUCTIONS TO VISISBILITY.

NORTHEAST MONTANA


CITY           SKY/WX    TMP DP  RH WIND       PRES   REMARKS
GLASGOW        PTSUNNY   67  53  61 E21       30.08F
PLENTYWOOD       N/A     67  51  56 NE15        N/A
WOLF POINT     CLOUDY    68  54  60 NE13      30.08S
JORDAN           N/A     66  56  70 E17G26    30.06S
WINNETT          N/A     69  55  60 E8          N/A
SIDNEY         CLOUDY    64  59  82 NE10G17   30.10S
GLENDIVE       PTSUNNY   66  61  82 NE17      30.07F
MALTA            N/A     63  58  83 E7          N/A
SCOBEY           N/A     65  51  60 NE12G20   30.11F

FORT PECK REPORTS


CITY           SKY/WX    TMP DP  RH WIND       PRES   REMARKS
FORT PECK        N/A     64  56  75 NE13        N/A
THE PINES        N/A     63  53  70 NE20        N/A

SOUTHEAST MONTANA


CITY           SKY/WX    TMP DP  RH WIND       PRES   REMARKS
BILLINGS       CLOUDY    64  56  75 NE10      30.03S
MILES CITY     CLOUDY    71  58  63 NE15      30.01S
BAKER          RAIN      64  61  90 NE10      30.06S FOG
LIVINGSTON     PTSUNNY   61  52  72 NE8       30.06S

CENTRAL MONTANA


CITY           SKY/WX    TMP DP  RH WIND       PRES   REMARKS
HAVRE          RAIN      59  57  93 E10       30.12R FOG
LEWISTOWN      LGT RAIN  58  55  90 NE8       30.09F
GREAT FALLS    CLOUDY    58  51  78 N13       30.11F
CUT BANK       CLOUDY    51  47  86 N18       30.21R
HELENA         PTSUNNY   66  47  50 N16       30.06S
BUTTE          PTSUNNY   61  44  53 E9        30.05F THUNDER
BOZEMAN        CLOUDY    60  50  69 S16       30.05S

WESTERN MONTANA


CITY           SKY/WX    TMP DP  RH WIND       PRES   REMARKS
MISSOULA       CLOUDY    64  51  62 N17G24    30.03R
KALISPELL      NOT AVBL

NORTH DAKOTA


CITY           SKY/WX    TMP DP  RH WIND       PRES   REMARKS
WILLISTON      CLOUDY    66  55  67 NE12      30.11S
DICKINSON      PTSUNNY   68  61  78 NE10      30.06S
MINOT          CLOUDY    65  61  87 NE6       30.11R
BISMARCK       CLOUDY    69  65  86 E13       30.06R

SOUTHERN SASKATCHEWAN


CITY           SKY/WX    TMP DP  RH WIND       PRES   REMARKS
REGINA         PTSUNNY   66  52  59 E13G20    30.19R
MOOSE JAW      CLOUDY    66  52  59 N9        30.19R
ESTEVAN        PTSUNNY   66  54  63 NE12      30.14F
SWIFT CURRENT  CLOUDY    61  52  72 NE15      30.19S




USA.gov is the U.S. government's official web portal to all federal, state and local government web resources and services.